User: anonymous   Login
Location: Unspecified
(0.0000°N, 0.0000°E)
Time: 16:52:10
(UTC+00:00)
Language:

NOAA 6 - Orbit

View from above orbital plane
View from above orbital plane
View from above satellite
View from above satellite

Ground track
Ground track

The orbit data is extracted from the following two-line orbital elements,

1 11416U 79057A   21289.55863119  .00000080  00000-0  44923-4 0  9995
2 11416  98.6689 295.0144 0009247 257.2844 102.7307 14.33659820206571
Epoch (UTC): 16 October 2021 13:24:25
Eccentricity: 0.0009247
inclination: 98.6689°
perigee height: 773 km
apogee height: 786 km
right ascension of ascending node: 295.0144°
argument of perigee: 257.2844°
revolutions per day: 14.33659820
mean anomaly at epoch: 102.7307°
orbit number at epoch: 20657

The dashed part of the orbit path shows where the satellite is in the earth's shadow,  

DLR